This demonstration page uses our WeatherBlox Daily Observations layout. Learn more.

Left ArrowRight Arrow

Hourly Observations for August 19, 2020

Temp ( °F °C ) Dew Point ( °F °C ) Humidity (%) Winds ( mph kmh ) Pressure ( in mb ) Visibility ( mi km ) Precip ( " mm )
12:15 am 00:15 Clear 68 20 61 16.2 79 79 SE 10 17 29.99 1015 10 16 N/A
12:35 am 00:35 Clear 68 19.9 62 16.4 80 80 SE 8 13 29.99 1016 10 16 N/A
12:55 am 00:55 Partly Cloudy 67 19.5 62 16.5 83 83 SE 9 15 29.99 1016 10 16 N/A
1:15 am 01:15 Partly Cloudy 66 19 62 16.6 86 86 SE 7 11 30.01 1016 10 16 N/A
1:35 am 01:35 Clear 65 18.5 62 16.5 88 88 SE 6 9 30.01 1016 10 16 N/A
1:55 am 01:55 Clear 64 18 62 16.4 90 90 SSE 3 6 30.01 1016 10 16 N/A
2:15 am 02:15 Clear 65 18.3 62 16.7 90 90 SE 8 13 30.01 1016 10 16 N/A
2:35 am 02:35 Clear 64 17.8 62 16.5 92 92 SSE 5 7 30.01 1016 10 16 N/A
2:55 am 02:55 Clear 64 17.5 61 16.2 92 92 SSE 3 6 30.02 1017 10 16 N/A
3:15 am 03:15 Clear 63 17.3 61 16.1 93 93 S 5 7 30.02 1017 10 16 N/A
3:35 am 03:35 Clear 63 17.1 61 16 93 93 SE 5 7 30.01 1016 10 16 N/A
3:55 am 03:55 Clear 63 17.1 61 16.1 94 94 SE 6 9 30.02 1017 10 16 N/A
4:15 am 04:15 Partly Cloudy 63 17 61 16 94 94 SE 5 7 30.02 1017 10 16 N/A
4:35 am 04:35 Partly Cloudy 63 17.1 61 16 93 93 SE 7 11 30.03 1017 10 16 N/A
4:55 am 04:55 Partly Cloudy 63 17.4 61 16.1 92 92 SSE 7 11 30.03 1017 10 16 N/A
5:15 am 05:15 Clear 64 17.5 61 16.2 92 92 SSE 7 11 30.03 1017 10 16 N/A
5:35 am 05:35 Partly Cloudy 64 17.7 61 16.3 92 92 SSE 6 9 30.04 1017 10 16 N/A
5:55 am 05:55 Partly Cloudy 64 17.7 62 16.4 92 92 S 5 7 30.04 1017 10 16 N/A
6:15 am 06:15 Partly Cloudy 64 17.7 61 16.2 91 91 SSE 6 9 30.03 1017 10 16 N/A
6:35 am 06:35 Clear 64 17.5 61 16.1 92 92 SSE 7 11 30.03 1017 10 16 N/A
6:55 am 06:55 Sunny 64 17.5 61 16.1 92 92 SSE 7 11 30.03 1017 10 16 N/A
7:15 am 07:15 Partly Cloudy 64 17.5 61 16 91 91 SSE 7 11 30.03 1017 10 16 N/A
7:35 am 07:35 Partly Cloudy 63 17.2 61 15.9 92 92 SE 7 11 30.04 1017 10 16 N/A
7:55 am 07:55 Sunny 64 17.6 61 16.2 92 92 SSE 9 15 30.04 1017 10 16 N/A
8:15 am 08:15 Sunny 65 18.5 61 16.2 87 87 SSE 9 15 30.03 1017 10 16 N/A
8:35 am 08:35 Sunny 67 19.2 61 16.2 83 83 SSE 10 17 30.02 1017 10 16 N/A
8:55 am 08:55 Sunny 69 20.7 62 16.5 77 77 SSE 12 19 30.01 1016 10 16 N/A
9:15 am 09:15 Sunny 68 20.2 61 16 77 77 SSE 10 17 30.00 1016 10 16 N/A
9:35 am 09:35 Sunny 69 20.6 61 16 75 75 SSE 10 17 29.99 1016 10 16 N/A
9:55 am 09:55 Sunny 70 21 60 15.8 72 72 SSE 12 19 30.00 1016 10 16 N/A
10:15 am 10:15 Sunny 70 21.1 60 15.6 71 71 SSE 9 15 30.00 1016 10 16 N/A
10:35 am 10:35 Sunny 72 22 61 15.9 68 68 SSE 8 13 29.99 1016 10 16 N/A
10:55 am 10:55 Sunny 73 22.5 60 15.7 66 66 SSE 12 19 29.99 1015 10 16 N/A
11:15 am 11:15 Sunny 73 23 60 15.8 64 64 SSE 10 17 29.98 1015 10 16 N/A
11:35 am 11:35 Partly Cloudy 76 24.7 60 15.3 56 56 SSE 14 22 29.96 1015 10 16 N/A
11:55 am 11:55 Partly Cloudy 78 25.6 60 15.6 54 54 SSE 15 24 29.94 1014 10 16 N/A
12:15 pm 12:15 Sunny 78 25.4 60 15.5 54 54 S 12 19 29.92 1013 10 16 N/A
12:35 pm 12:35 Sunny 79 26.1 60 15.7 53 53 SSE 13 20 29.93 1013 10 16 N/A
12:55 pm 12:55 Sunny 81 27.1 61 16 51 51 SSE 14 22 29.91 1013 10 16 N/A
1:15 pm 13:15 Sunny 81 27.2 61 16.2 51 51 SSE 15 24 29.90 1012 10 16 N/A
1:35 pm 13:35 Sunny 82 27.7 61 16 49 49 SSE 16 26 29.91 1013 10 16 N/A
1:55 pm 13:55 Sunny 82 27.9 61 15.9 48 48 SSE 16 26 29.89 1012 10 16 N/A
2:15 pm 14:15 Sunny 82 28 60 15.3 46 46 S 13 20 29.89 1012 10 16 N/A
2:35 pm 14:35 Sunny 83 28.5 59 15.2 44 44 S 14 22 29.89 1012 10 16 N/A
2:55 pm 14:55 Sunny 84 28.7 60 15.3 44 44 SSE 13 20 29.88 1012 10 16 N/A
3:15 pm 15:15 Sunny 84 29.1 60 15.8 45 45 SSE 14 22 29.85 1011 10 16 N/A
3:35 pm 15:35 Sunny 84 29 60 15.5 44 44 S 12 19 29.85 1011 10 16 N/A
3:55 pm 15:55 Sunny 84 28.8 61 16.1 46 46 SSE 10 17 29.87 1011 10 16 N/A
4:15 pm 16:15 Sunny 84 28.7 62 16.4 47 47 SSE 10 17 29.85 1011 10 16 N/A
4:35 pm 16:35 Sunny 83 28.6 62 16.4 48 48 SSE 12 19 29.85 1011 10 16 N/A
4:55 pm 16:55 Sunny 82 28 62 16.6 50 50 SSE 9 15 29.84 1011 10 16 N/A
5:15 pm 17:15 Sunny 83 28.3 63 17.1 51 51 SSE 7 11 29.85 1011 10 16 N/A
5:35 pm 17:35 Sunny 83 28.5 62 16.9 49 49 SSE 9 15 29.83 1010 10 16 N/A
5:55 pm 17:55 Sunny 82 28 63 17.1 52 52 SSE 10 17 29.82 1010 10 16 N/A
6:15 pm 18:15 Sunny 82 28 63 17.4 53 53 SSE 12 19 29.82 1010 10 16 N/A
6:35 pm 18:35 Sunny 81 27.2 63 17 54 54 SSE 10 17 29.82 1010 10 16 N/A
6:55 pm 18:55 Sunny 80 26.6 63 17.4 57 57 SE 9 15 29.82 1010 10 16 N/A
7:15 pm 19:15 Sunny 79 26 63 17.2 58 58 SE 7 11 29.83 1010 10 16 N/A
7:35 pm 19:35 Sunny 78 25.4 63 17 60 60 SE 9 15 29.82 1010 10 16 N/A
7:55 pm 19:55 Sunny 76 24.4 63 17 63 63 SE 9 15 29.84 1011 10 16 N/A
8:15 pm 20:15 Sunny 74 23.5 62 16.9 67 67 SE 9 15 29.84 1010 10 16 N/A
8:35 pm 20:35 Clear 73 22.7 62 16.8 69 69 SSE 6 9 29.86 1011 10 16 N/A
8:55 pm 20:55 Clear 71 21.5 63 17 76 76 SE 7 11 29.87 1011 10 16 N/A
9:15 pm 21:15 Clear 69 20.7 63 17 79 79 SE 6 9 29.88 1012 10 16 N/A
9:35 pm 21:35 Clear 68 20.1 62 16.8 81 81 SE 7 11 29.89 1012 10 16 N/A
9:55 pm 21:55 Clear 68 19.8 62 16.5 81 81 SSE 6 9 29.90 1012 10 16 N/A
10:15 pm 22:15 Clear 68 19.8 61 16.2 80 80 SE 7 11 29.90 1012 10 16 N/A
10:35 pm 22:35 Clear 67 19.5 60 15.8 79 79 SSE 7 11 29.91 1013 10 16 N/A
10:55 pm 22:55 Clear 67 19.3 60 15.6 79 79 SSE 6 9 29.91 1013 10 16 N/A
11:15 pm 23:15 Clear 66 19 60 15.5 80 80 SSE 7 11 29.92 1013 10 16 N/A
11:35 pm 23:35 Clear 66 18.9 60 15.3 80 80 SSE 6 9 29.92 1013 10 16 N/A
11:55 pm 23:55 Clear 66 19.1 59 15.2 78 78 S 6 9 29.91 1013 10 16 N/A

Powered by AerisWeather